Storm Lake, IA

8:30 PM CST on November 19, 2017 (GMT -0600)
Storm Lake Municipal

Weather History for KSLB - May, 2013

Change the Weather History Date:

Saturday, May 18, 2013

  Actual Average Record
Temperature  
Mean Temperature 72 °F -  
Max Temperature 84 °F 69 °F 91 °F (1998)
Min Temperature 59 °F 48 °F 39 °F (2015)
Cooling Degree Days 6    
Growing Degree Days 22 (Base 50)    
Moisture  
Dew Point 61 °F    
Average Humidity 72    
Maximum Humidity 100    
Minimum Humidity 42    
Precipitation  
Precipitation 0.00 in - - ()
Sea Level Pressure  
Sea Level Pressure 29.86 in    
Wind  
Wind Speed 12 mph (SSE)    
Max Wind Speed 22 mph    
Max Gust Speed 29 mph    
Visibility 10 miles    
Events      
Averages and records for this station are not official NWS values.
T = Trace of Precipitation, MM = Missing Value Source: NWS Daily Summary

Daily Weather History Graph

Daily Weather History Graph

Search for Another Location

Airport or City:

Trip Planner

Search our weather history database for the weather conditions in past years. The results will help you decide how hot, cold, wet, or windy it might be!

Date:

Astronomy

May. 18, 2013 Rise Set
Actual Time 5:55 AM CDT 8:39 PM CDT
Civil Twilight 5:22 AM CDT 9:12 PM CDT
Nautical Twilight 4:41 AM CDT 9:53 PM CDT
Astronomical Twilight 3:54 AM CDT 10:41 PM CDT
Moon 1:35 PM CDT (5/18) 1:58 AM CDT (5/18)
Length of Visible Light 15h 49m
Length of Day
14h 44m
First Quarter, 55% of the Moon is Illuminated
May 18
First Quarter
May 24
Full
May 31
Last Quarter
Jun 8
New
Jun 16
First Quarter

Hourly Weather History & Observations

Time (CDT) Temp. Heat Index Dew Point Humidity Pressure Visibility Wind Dir Wind Speed Gust Speed Precip Events Conditions
12:15 AM 66.2 °F - 60.8 °F 83% 29.90 in 10.0 mi South 12.7 mph - N/A   Clear
12:35 AM 66.2 °F - 60.8 °F 83% 29.90 in 10.0 mi SSE 15.0 mph - N/A   Clear
12:55 AM 66.2 °F - 60.8 °F 83% 29.90 in - SSE 15.0 mph 21.9 mph N/A   Clear
1:15 AM 64.4 °F - 60.8 °F 88% 29.91 in 10.0 mi SSE 12.7 mph - N/A   Clear
1:35 AM 64.4 °F - 60.8 °F 88% 29.90 in 10.0 mi SSE 12.7 mph - N/A   Clear
1:55 AM 64.4 °F - 60.8 °F 88% 29.91 in 10.0 mi SSE 11.5 mph - N/A   Clear
2:15 AM 64.4 °F - 60.8 °F 88% 29.91 in 10.0 mi South 10.4 mph - N/A   Clear
2:35 AM 62.6 °F - 60.8 °F 94% 29.91 in 10.0 mi South 10.4 mph - N/A   Clear
2:55 AM 62.6 °F - 60.8 °F 94% 29.90 in 10.0 mi South 10.4 mph - N/A   Clear
3:15 AM 62.6 °F - 60.8 °F 94% 29.90 in 10.0 mi South 11.5 mph - N/A   Clear
3:35 AM 62.6 °F - 60.8 °F 94% 29.90 in 10.0 mi South 11.5 mph - N/A   Clear
3:55 AM 60.8 °F - 60.8 °F 100% 29.91 in 10.0 mi South 8.1 mph - N/A   Clear
4:15 AM 60.8 °F - 60.8 °F 100% 29.91 in 10.0 mi South 9.2 mph - N/A   Clear
4:35 AM 60.8 °F - 59.0 °F 94% 29.91 in 10.0 mi South 8.1 mph - N/A   Clear
4:55 AM 60.8 °F - 59.0 °F 94% 29.91 in 10.0 mi South 8.1 mph - N/A   Clear
5:15 AM 60.8 °F - 59.0 °F 94% 29.90 in 10.0 mi South 8.1 mph - N/A   Clear
5:35 AM 59.0 °F - 59.0 °F 100% 29.90 in 10.0 mi South 9.2 mph - N/A   Clear
5:55 AM 59.0 °F - 59.0 °F 100% 29.89 in 10.0 mi South 10.4 mph - N/A   Clear
6:15 AM 59.0 °F - 59.0 °F 100% 29.89 in 10.0 mi South 11.5 mph - N/A   Clear
6:35 AM 59.0 °F - 59.0 °F 100% 29.90 in 9.0 mi South 8.1 mph - N/A   Clear
6:55 AM 60.8 °F - 60.8 °F 100% 29.91 in 10.0 mi South 6.9 mph - N/A   Clear
7:15 AM 60.8 °F - 60.8 °F 100% 29.93 in 10.0 mi SSW 4.6 mph - N/A   Clear
7:35 AM 62.6 °F - 60.8 °F 94% 29.93 in 10.0 mi Calm Calm - N/A   Clear
7:55 AM 62.6 °F - 60.8 °F 94% 29.94 in 10.0 mi South 5.8 mph - N/A   Clear
8:15 AM 64.4 °F - 60.8 °F 88% 29.94 in 10.0 mi Variable 4.6 mph - N/A   Clear
8:35 AM 66.2 °F - 62.6 °F 88% 29.94 in 10.0 mi SSE 6.9 mph - N/A   Clear
8:55 AM 66.2 °F - 60.8 °F 83% 29.93 in 10.0 mi SSE 6.9 mph - N/A   Clear
9:15 AM 68.0 °F - 62.6 °F 83% 29.92 in 10.0 mi SSE 9.2 mph - N/A   Clear
9:35 AM 69.8 °F - 62.6 °F 78% 29.93 in - SSE 9.2 mph - N/A   Clear
9:55 AM 71.6 °F - 62.6 °F 73% 29.93 in 10.0 mi SSE 9.2 mph - N/A   Clear
10:15 AM 71.6 °F - 62.6 °F 73% 29.93 in 10.0 mi SSE 8.1 mph - N/A   Clear
10:35 AM 73.4 °F - 62.6 °F 69% 29.92 in 10.0 mi South 6.9 mph - N/A   Clear
10:55 AM 75.2 °F - 60.8 °F 61% 29.92 in 10.0 mi SSW 6.9 mph - N/A   Partly Cloudy
11:15 AM 75.2 °F - 60.8 °F 61% 29.91 in 10.0 mi SSE 9.2 mph - N/A   Scattered Clouds
11:35 AM 75.2 °F - 60.8 °F 61% 29.91 in 10.0 mi SSE 12.7 mph - N/A   Mostly Cloudy
11:55 AM 75.2 °F - 60.8 °F 61% 29.90 in 10.0 mi SE 10.4 mph 16.1 mph N/A   Mostly Cloudy
12:15 PM 77.0 °F - 60.8 °F 57% 29.89 in 10.0 mi SSE 12.7 mph 19.6 mph N/A   Scattered Clouds
12:35 PM 77.0 °F - 60.8 °F 57% 29.88 in 10.0 mi SE 16.1 mph - N/A   Mostly Cloudy
12:55 PM 77.0 °F - 60.8 °F 57% 29.87 in 10.0 mi SSE 13.8 mph - N/A   Overcast
1:15 PM 77.0 °F - 60.8 °F 57% 29.86 in 10.0 mi SSE 11.5 mph 18.4 mph N/A   Overcast
1:35 PM 78.8 °F - 60.8 °F 54% 29.85 in 10.0 mi SE 13.8 mph 19.6 mph N/A   Mostly Cloudy
2:15 PM 78.8 °F - 60.8 °F 54% 29.84 in 10.0 mi SSE 17.3 mph - N/A   Mostly Cloudy
2:35 PM 80.6 °F 81.5 °F 60.8 °F 51% 29.84 in 10.0 mi SSE 13.8 mph 23.0 mph N/A   Mostly Cloudy
2:55 PM 80.6 °F 81.1 °F 59.0 °F 48% 29.82 in 10.0 mi SE 20.7 mph - N/A   Overcast
3:15 PM 80.6 °F 81.1 °F 59.0 °F 48% 29.82 in 10.0 mi SSE 18.4 mph 26.5 mph N/A   Mostly Cloudy
3:35 PM 82.4 °F 82.5 °F 59.0 °F 45% 29.82 in 10.0 mi SE 18.4 mph - N/A   Mostly Cloudy
3:55 PM 84.2 °F 83.8 °F 59.0 °F 42% 29.81 in 10.0 mi South 20.7 mph 28.8 mph N/A   Mostly Cloudy
4:15 PM 82.4 °F 82.9 °F 60.8 °F 48% 29.81 in 10.0 mi SSE 15.0 mph 25.3 mph N/A   Mostly Cloudy
4:35 PM 82.4 °F 82.9 °F 60.8 °F 48% 29.81 in 10.0 mi SSE 18.4 mph 26.5 mph N/A   Mostly Cloudy
5:15 PM 82.4 °F 82.5 °F 59.0 °F 45% 29.81 in 10.0 mi SSE 21.9 mph 28.8 mph N/A   Mostly Cloudy
5:35 PM 82.4 °F 82.9 °F 60.8 °F 48% 29.81 in 10.0 mi SSE 19.6 mph 26.5 mph N/A   Mostly Cloudy
5:55 PM 82.4 °F 82.5 °F 59.0 °F 45% 29.80 in 10.0 mi South 19.6 mph - N/A   Overcast
6:15 PM 80.6 °F 81.1 °F 59.0 °F 48% 29.80 in 10.0 mi South 17.3 mph - N/A   Overcast
6:35 PM 80.6 °F 81.1 °F 59.0 °F 48% 29.79 in 10.0 mi SSE 16.1 mph 21.9 mph N/A   Overcast
6:55 PM 80.6 °F 81.5 °F 60.8 °F 51% 29.78 in 10.0 mi SSE 15.0 mph - N/A   Overcast
7:15 PM 80.6 °F 81.5 °F 60.8 °F 51% 29.77 in 10.0 mi SSE 17.3 mph 24.2 mph N/A   Scattered Clouds
7:35 PM 80.6 °F 81.5 °F 60.8 °F 51% 29.77 in 10.0 mi SSE 18.4 mph - N/A   Clear
7:55 PM 78.8 °F - 60.8 °F 54% 29.75 in 10.0 mi SE 13.8 mph - N/A   Clear
8:15 PM 78.8 °F - 60.8 °F 54% 29.75 in 10.0 mi SE 13.8 mph - N/A   Clear
8:35 PM 77.0 °F - 60.8 °F 57% 29.77 in 10.0 mi SE 15.0 mph - N/A   Clear
8:55 PM 75.2 °F - 60.8 °F 61% 29.77 in 10.0 mi SSE 15.0 mph - N/A   Mostly Cloudy
9:15 PM 75.2 °F - 60.8 °F 61% 29.76 in 10.0 mi SE 15.0 mph - N/A   Scattered Clouds
9:35 PM 75.2 °F - 60.8 °F 61% 29.75 in 10.0 mi SE 11.5 mph - N/A   Clear
9:55 PM 73.4 °F - 60.8 °F 65% 29.75 in 10.0 mi SE 12.7 mph - N/A   Clear
10:15 PM 73.4 °F - 62.6 °F 69% 29.76 in 10.0 mi SE 13.8 mph - N/A   Clear
10:35 PM 73.4 °F - 62.6 °F 69% 29.75 in 10.0 mi SE 13.8 mph - N/A   Clear
11:15 PM 71.6 °F - 62.6 °F 73% 29.74 in 10.0 mi SE 11.5 mph 18.4 mph N/A   Clear
11:35 PM 71.6 °F - 62.6 °F 73% 29.74 in 10.0 mi SE 12.7 mph - N/A   Scattered Clouds
11:55 PM 71.6 °F - 62.6 °F 73% 29.75 in 10.0 mi SE 13.8 mph - N/A   Overcast